DW6218 Weather Reports


time (UTC)temp
C
wind
direction
speed
KPH
gust
KPH
rain 1hr
cm
rain 24hr
cm
rain mn
cm
humidity
%
barometer
mb
20260505064511 9 348 0.0 4.8 0.00 0.05 0.00 83 1006.1
20260505063004 10 342 0.0 0.0 0.00 0.05 0.00 86 1006.0
20260505061601 10 342 0.0 0.0 0.00 0.05 0.00 84 1005.5
20260505060103 10 342 0.0 0.0 0.00 0.05 0.00 83 1005.4
20260505054558 10 342 0.0 0.0 0.00 0.05 0.05 83 1005.2
20260505053057 10 341 0.0 0.0 0.00 0.05 0.05 82 1005.0
20260505051556 10 341 0.0 0.0 0.00 0.05 0.05 82 1005.1
20260505041550 10 341 0.0 0.0 0.03 0.05 0.05 83 1004.5
20260505040050 10 341 0.0 0.0 0.03 0.05 0.05 83 1004.4
20260505034551 11 342 0.0 0.0 0.03 0.05 0.05 81 1004.4
20260505033047 11 345 0.0 0.0 0.03 0.05 0.05 81 1004.1
20260505031550 11 345 0.0 0.0 0.00 0.03 0.03 80 1004.1
20260505030044 11 345 0.0 0.0 0.03 0.03 0.03 79 1003.7
20260505024542 12 345 0.0 0.0 0.03 0.03 0.03 77 1003.2
20260505023048 12 345 0.0 0.0 0.03 0.03 0.03 76 1003.1
20260505021541 12 345 0.0 0.0 0.03 0.03 0.03 73 1003.0
20260505020039 13 345 0.0 1.6 0.00 0.00 0.00 70 1003.4
20260505014538 13 345 0.0 0.0 0.00 0.00 0.00 66 1003.3
20260505013035 13 345 0.0 4.8 0.00 0.00 0.00 58 1003.2
20260505011537 13 344 0.0 9.7 0.00 0.00 0.00 57 1002.9
20260505010100 14 340 0.0 20.9 0.00 0.00 0.00 55 1002.5
20260505004534 14 248 0.0 3.2 0.00 0.00 0.00 54 1002.3
20260505003039 14 246 0.0 0.0 0.00 0.00 0.00 56 1002.2
20260505001532 14 246 0.0 0.0 0.00 0.00 0.00 57 1002.2
20260505000042 15 246 0.0 16.1 0.00 0.00 0.00 54 1002.3
20260504234530 17 218 0.0 17.7 0.00 0.00 0.00 39 1002.0
20260504233029 18 350 0.0 0.0 0.00 0.00 0.00 31 1001.5
20260504231528 18 351 0.0 0.0 0.00 0.00 0.00 30 1000.9
20260504230038 19 351 0.0 1.6 0.00 0.00 0.00 29 1000.5
20260504224528 20 351 0.0 6.4 0.00 0.00 0.00 29 1000.5
20260504223128 20 343 6.4 19.3 0.00 0.00 0.00 30 1000.5
20260504221539 20 355 6.4 22.5 0.00 0.00 0.00 30 1000.5
20260504220026 20 307 4.8 14.5 0.00 0.00 0.00 30 1000.8
20260504214526 20 300 1.6 12.9 0.00 0.00 0.00 30 1001.0
20260504213032 21 355 3.2 20.9 0.00 0.00 0.00 27 1001.2
20260504211527 21 5 8.0 25.7 0.00 0.00 0.00 26 1000.8
20260504210023 23 355 20.9 33.8 0.00 0.00 0.00 24 1000.6
20260504204528 22 341 14.5 29.0 0.00 0.00 0.00 27 1000.4
20260504203022 21 360 14.5 32.2 0.00 0.00 0.00 26 1000.5
20260504201524 21 327 16.1 35.4 0.00 0.00 0.00 25 1000.4
20260504200019 21 341 12.9 27.4 0.00 0.00 0.00 23 1000.2
20260504194524 22 342 9.7 29.0 0.00 0.00 0.00 22 1000.3
20260504193018 23 342 17.7 38.6 0.00 0.00 0.00 20 1000.0
20260504191527 23 5 11.3 32.2 0.00 0.00 0.00 18 999.4
20260504190016 23 338 4.8 25.7 0.00 0.00 0.00 19 999.5
20260504184518 23 348 0.0 24.1 0.00 0.00 0.00 18 999.5
20260504183012 23 254 3.2 24.1 0.00 0.00 0.00 20 999.4
20260504181515 23 273 8.0 27.4 0.00 0.00 0.00 20 999.5
20260504180009 23 256 6.4 25.7 0.00 0.00 0.00 20 999.6
20260504174505 22 248 8.0 24.1 0.00 0.00 0.00 20 999.8
20260504173002 22 261 3.2 27.4 0.00 0.00 0.00 21 1000.1
20260504171600 21 273 1.6 16.1 0.00 0.00 0.00 21 1000.3
20260504081534 10 13 0.0 0.0 0.00 0.00 0.00 47 1002.9